Weather Roundup
Issued by NWS

Home | Current Version | Previous Version | Graphics & Text | Print | Product List | Glossary Off
Versions: 1 2 3 4 5 6 7 8 9 10 11 12 13 14 15 16 17 18 19 20 21 22 23 24 25 26 27 28 29 30 31 32 33 34 35 36 37 38 39 40 41 42 43 44 45 46 47 48 49 50

000
NZUS93 KARX 052159
HRRWXR

CURRENT HOURLY OBSERVATIONS ACROSS
MUCH OF THE UPPER MISSISSIPPI VALLEY
NATIONAL WEATHER SERVICE LA CROSSE WI
400 PM CST THU MAR 05 2015


...SOUTHEAST MINNESOTA...


CITY           SKY/WX    TMP DP  RH WIND       PRES   REMARKS
ROCHESTER      SUNNY      9  -1  64 SW10      30.43S WCI  -5
ROCHESTER/MAYO FAIR      13  -1  53 SW9       30.44S WCI   1
WINONA         SUNNY     14   0  52 SW7       30.49F WCI   4
AUSTIN         SUNNY     10   0  61 SW9       30.43F WCI  -2
ALBERT LEA     SUNNY     14   3  62 SW8       30.41F WCI   3
DODGE CENTER   SUNNY     10   1  67 SW9       30.41F WCI  -2
PRESTON        SUNNY      8  -1  66 W9        30.44F WCI  -6
OWATONNA       SUNNY     14   1  57 SW8       30.42S WCI   3
FARIBAULT      SUNNY     16   3  57 SW8       30.43S WCI   5
$$

...ELSEWHERE IN MINNESOTA...


CITY           SKY/WX    TMP DP  RH WIND       PRES   REMARKS
MINNEAPOLIS    SUNNY     15  -1  49 S7        30.43F WCI   5
INTNL FALLS    SUNNY     16  -7  35 SW16      30.17F WCI   1
DULUTH         SUNNY     14  -8  37 SW14      30.25F WCI  -1
RED WING       SUNNY     14  -4  44 W7        30.45S WCI   4
REDWOOD FALLS  SUNNY     19   2  47 S14       30.36F WCI   6
MANKATO        SUNNY     16   1  53 SW9       30.41F WCI   4
FAIRMONT       SUNNY     19   3  49 SW10      30.38F WCI   8
$$

...SOUTHWEST WISCONSIN...


CITY           SKY/WX    TMP DP  RH WIND       PRES   REMARKS
LA CROSSE      SUNNY     15  -3  44 NW12      30.48S WCI   2
PRAIRIE DU CHI SUNNY     11  -5  47 SW10      30.52R WCI  -2
BOSCOBEL       SUNNY     15  -5  40 W7        30.50S WCI   5
LONE ROCK      NOT AVBL
PLATTEVILLE    SUNNY     12  -4  50 W8        30.47S WCI   0
FORT MC COY    SUNNY     15  -5  42 W8        30.47S WCI   3
VIROQUA        FAIR      12  -4  47 SW9       30.42F WCI   0
WIS DELLS      NOT AVBL
$$

...ELSEWHERE IN WISCONSIN...


CITY           SKY/WX    TMP DP  RH WIND       PRES   REMARKS
MILWAUKEE      SUNNY     16  -6  37 W7        30.46S WCI   6
MADISON        SUNNY     15  -5  40 VRB6      30.45S WCI   6
GREEN BAY      SUNNY     14  -5  42 SW10      30.42S WCI   1
EAU CLAIRE     NOT AVBL
BLACK RVR FLS  FAIR      15  -6  39 W8        30.45S WCI   4
MEDFORD        SUNNY      7  -8  50 SW9       30.35S WCI  -7
WAUSAU         SUNNY      9  -7  48 W13       30.37S WCI  -7
WIS RAPIDS     SUNNY     14  -7  38 W9        30.42S WCI   2
MARSHFIELD     SUNNY     11  -7  44 W8        30.38F WCI  -1
RICE LAKE      SUNNY     10  -8  44 SW7       30.42S WCI  -1
$$

...NORTHEAST IOWA...


CITY           SKY/WX    TMP DP  RH WIND       PRES   REMARKS
DECORAH        SUNNY      9  -4  56 W8        30.46S WCI  -4
MASON CITY     SUNNY     13   3  64 S9        30.45F WCI   1
CHARLES CITY   SUNNY     10  -2  56 SW6       30.48S WCI   1
OELWEIN        SUNNY      9  -2  61 W8        30.50R WCI  -4
$$

...ELSEWHERE IN IOWA...


CITY           SKY/WX    TMP DP  RH WIND       PRES   REMARKS
DES MOINES     SUNNY     20  -1  40 CALM      30.49F
IOWA CITY      SUNNY     13  -2  51 NW8       30.56S WCI   2
FORT DODGE     SUNNY     18   3  53 S7        30.45S WCI   8
$$

...NORTHERN ILLINOIS...


CITY           SKY/WX    TMP DP  RH WIND       PRES   REMARKS
CHICAGO-OHARE  SUNNY     15  -2  46 W6        30.48R WCI   6
CHICAGO-MIDWAY SUNNY     18  -2  41 NW7       30.50R WCI   9
MOLINE         SUNNY     13  -1  54 W9        30.55R WCI   1
ROCKFORD       SUNNY     12  -4  48 W9        30.51S WCI   0
PEORIA         SUNNY     16   0  49 W8        30.55R WCI   5
$$

NOTE: "FAIR" INDICATES FEW OR NO CLOUDS BELOW 12,000 FEET WITH NO
SIGNIFICANT WEATHER AND/OR OBSTRUCTIONS TO VISIBILITY. WIND
SPEEDS ARE IN MILES-PER-HOUR.



USA.gov is the U.S. government's official web portal to all federal, state and local government web resources and services.